Location: Newark
(42.7133°N, 87.7910°W)
Time: 04:07:06
(UTC+00:00)

Vanguard 2 Rocket - All Passes

Search period start: 19 September 2019 00:00
Search period end: 29 September 2019 00:00
Orbit: 554 x 3327 km, 32.9° (Epoch: 17 September)

Date Brightness Start Highest point End Pass type
(mag) Time Alt. Az. Time Alt. Az. Time Alt. Az.
19 Sep - 00:23:01 10° SSW 00:25:08 13° SSE 00:27:02 10° SE visible
19 Sep - 02:34:14 10° SW 02:37:19 21° S 02:40:28 10° SE visible
19 Sep - 04:46:35 10° SW 04:49:31 18° S 04:53:04 10° SSE night (unlit)
19 Sep - 23:24:39 10° S 23:25:52 11° SSE 23:27:00 10° SSE daylight
20 Sep - 01:35:03 10° SW 01:38:16 20° S 01:41:12 10° SE visible
20 Sep - 03:47:29 10° SW 03:50:23 19° S 03:53:39 10° SE night (unlit)
21 Sep - 00:35:41 10° SW 00:39:09 19° S 00:42:05 10° SE visible
21 Sep - 02:48:15 10° SW 02:51:20 21° S 02:54:26 10° SE visible
21 Sep - 05:01:53 10° SW 05:03:34 12° SSW 05:05:26 10° S night (unlit)
21 Sep - 23:36:08 10° SSW 23:39:57 17° S 23:43:00 10° SE daylight
22 Sep - 01:48:49 10° SW 01:52:17 22° S 01:55:24 10° SE visible
22 Sep - 04:02:10 10° SW 04:04:23 14° SSW 04:06:47 10° SSE night (unlit)
22 Sep - 22:36:31 10° SSW 22:40:35 16° SSE 22:43:48 10° SE daylight
23 Sep - 00:49:05 10° SW 00:53:12 23° S 00:56:31 10° SE visible
23 Sep - 03:02:34 10° SW 03:05:19 18° SSW 03:08:03 10° SSE visible
23 Sep - 21:37:02 10° S 21:41:02 14° SSE 21:44:17 10° SE daylight
23 Sep - 23:49:06 10° SW 23:54:01 23° S 23:57:41 10° ESE daylight
24 Sep - 02:02:50 10° WSW 02:06:17 21° S 02:09:21 10° SE visible
24 Sep - 20:38:07 10° S 20:41:17 12° SSE 20:44:01 10° SE daylight
24 Sep - 22:48:53 10° SW 22:54:42 23° S 22:58:49 10° ESE daylight
25 Sep - 01:02:52 10° WSW 01:07:14 25° S 01:10:40 10° SE visible
25 Sep - 03:17:23 10° SW 03:19:14 13° SSW 03:21:03 10° S visible
25 Sep - 21:48:34 10° SSW 21:55:10 22° SSE 21:59:49 10° ESE daylight
26 Sep - 00:02:34 10° WSW 00:08:05 28° S 00:12:00 10° ESE visible
26 Sep - 02:17:07 10° WSW 02:20:13 18° SSW 02:22:58 10° SSE visible
26 Sep - 20:48:17 10° SSW 20:55:26 20° SSE 21:00:32 10° ESE daylight
26 Sep - 23:01:59 10° SW 23:08:48 30° S 23:13:18 10° ESE daylight
27 Sep - 01:16:51 10° WSW 01:21:12 24° SSW 01:24:37 10° SE visible
27 Sep - 19:48:20 10° SSW 19:55:27 17° SSE 20:00:47 10° ESE daylight
27 Sep - 22:01:11 10° SW 22:09:17 29° S 22:14:31 10° ESE daylight
28 Sep - 00:16:20 10° WSW 00:22:06 30° S 00:26:07 10° SE visible
28 Sep - 02:31:55 10° SW 02:34:02 13° SSW 02:35:59 10° S visible
28 Sep - 18:49:10 10° S 18:55:13 14° SSE 19:00:09 10° SE daylight
28 Sep - 21:00:16 10° SW 21:09:32 28° SSE 21:15:33 10° ESE daylight
28 Sep - 23:15:29 10° WSW 23:22:51 34° S 23:27:34 10° ESE daylight
